H1 CPF 2 NER 2023 11 26 9 330 01 glonass142 H2 2001801 9142 45358 2023 11 26 0 0 0 2023 11 29 23 45 0 900 1 1 0 0 0 1 H9 10 0 60274 0.00000 0 11413071.412 -12685289.095 18992489.403 10 0 60274 900.00000 0 10971224.398 -10284624.412 20633974.126 10 0 60274 1800.00000 0 10692710.006 -7681431.991 21875862.799 10 0 60274 2700.00000 0 10604247.133 -4938220.527 22694111.767 10 0 60274 3600.00000 0 10721137.103 -2122365.167 23072853.881 10 0 60274 4500.00000 0 11046560.598 696445.698 23004703.737 10 0 60274 5400.00000 0 11571398.022 3448856.370 22490902.827 10 0 60274 6300.00000 0 12274581.282 6068474.634 21541301.739 10 0 60274 7200.00000 0 13123963.112 8494380.006 20174179.290 10 0 60274 8100.00000 0 14077668.704 10673406.867 18415901.201 10 0 60274 9000.00000 0 15085874.342 12562108.839 16300423.702 10 0 60274 9900.00000 0 16092939.841 14128323.436 13868650.317 10 0 60274 10800.00000 0 17039806.440 15352272.267 11167652.789 10 0 60274 11700.00000 0 17866560.313 16227150.895 8249769.899 10 0 60274 12600.00000 0 18515054.234 16759183.528 5171600.522 10 0 60274 13500.00000 0 18931476.908 16967139.914 1992909.681 10 0 60274 14400.00000 0 19068760.994 16881334.470 -1224531.546 10 0 60274 15300.00000 0 18888727.038 16542149.522 -4418149.624 10 0 60274 16200.00000 0 18363871.297 15998144.978 -7525791.805 10 0 60274 17100.00000 0 17478720.061 15303834.469 -10486944.415 10 0 60274 18000.00000 0 16230691.378 14517222.521 -13243921.397 10 0 60274 18900.00000 0 14630425.842 13697207.699 -15742998.831 10 0 60274 19800.00000 0 12701570.723 12900962.531 -17935472.206 10 0 60274 20700.00000 0 10480025.010 12181402.143 -19778614.805 10 0 60274 21600.00000 0 8012675.938 11584849.649 -21236517.720 10 0 60274 22500.00000 0 5355679.162 11148997.939 -22280794.595 10 0 60274 23400.00000 0 2572354.180 10901254.655 -22891137.049 10 0 60274 24300.00000 0 -269217.188 10857540.664 -23055709.922 10 0 60274 25200.00000 0 -3098789.030 11021592.858 -22771378.837 10 0 60274 26100.00000 0 -5846637.804 11384800.532 -22043765.973 10 0 60274 27000.00000 0 -8446225.107 11926581.766 -20887133.409 10 0 60274 27900.00000 0 -10836725.996 12615283.303 -19324096.847 10 0 60274 28800.00000 0 -12965317.939 13409565.180 -17385175.853 10 0 60274 29700.00000 0 -14789135.776 14260210.828 -15108189.942 10 0 60274 30600.00000 0 -16276812.295 15112285.450 -12537512.856 10 0 60274 31500.00000 0 -17409541.564 15907550.788 -9723200.168 10 0 60274 32400.00000 0 -18181622.344 16587033.723 -6720007.782 10 0 60274 33300.00000 0 -18600460.913 17093639.809 -3586320.993 10 0 60274 34200.00000 0 -18686035.233 17374701.114 -383015.529 10 0 60274 35100.00000 0 -18469845.117 17384350.784 2827726.848 10 0 60274 36000.00000 0 -17993394.404 17085624.251 5983624.858 10 0 60274 36900.00000 0 -17306270.613 16452198.754 9023502.710 10 0 60274 37800.00000 0 -16463904.103 15469698.208 11888470.368 10 0 60274 38700.00000 0 -15525101.750 14136508.821 14523056.552 10 0 60274 39600.00000 0 -14549459.180 12464071.356 16876273.124 10 0 60274 40500.00000 0 -13594760.131 10476637.702 18902591.195 10 0 60274 41400.00000 0 -12714471.607 8210501.539 20562811.095 10 0 60274 42300.00000 0 -11955439.147 5712734.502 21824810.579 10 0 60274 43200.00000 0 -11355877.867 3039479.392 22664157.915 10 0 60274 44100.00000 0 -10943742.526 253869.985 23064579.051 10 0 60274 45000.00000 0 -10735544.117 -2576337.840 23018270.526 10 0 60274 45900.00000 0 -10735662.063 -5381327.230 22526052.502 10 0 60274 46800.00000 0 -10936180.703 -8091869.455 21597358.916 10 0 60274 47700.00000 0 -11317257.248 -10641952.931 20250064.470 10 0 60274 48600.00000 0 -11848006.446 -12971284.706 18510150.986 10 0 60274 49500.00000 0 -12487865.859 -15027561.860 16411218.352 10 0 60274 50400.00000 0 -13188385.539 -16768419.249 13993848.183 10 0 60274 51300.00000 0 -13895368.005 -18162972.995 11304831.046 10 0 60274 52200.00000 0 -14551269.441 -19192895.430 8396270.852 10 0 60274 53100.00000 0 -15097761.497 -19852976.335 5324582.669 10 0 60274 54000.00000 0 -15478345.819 -20151146.560 2149402.572 10 0 60274 54900.00000 0 -15640910.548 -20107962.534 -1067569.683 10 0 60274 55800.00000 0 -15540119.850 -19755572.918 -4263772.629 10 0 60274 56700.00000 0 -15139534.125 -19136210.647 -7377005.858 10 0 60274 57600.00000 0 -14413369.521 -18300273.933 -10346649.053 10 0 60274 58500.00000 0 -13347820.426 -17304077.517 -13114852.461 10 0 60274 59400.00000 0 -11941887.029 -16207369.670 -15627674.524 10 0 60274 60300.00000 0 -10207671.065 -15070720.621 -17836143.368 10 0 60274 61200.00000 0 -8170125.484 -13952893.621 -19697220.421 10 0 60274 62100.00000 0 -5866267.101 -12908310.604 -21174646.607 10 0 60274 63000.00000 0 -3343884.101 -11984720.235 -22239654.041 10 0 60274 63900.00000 0 -659791.843 -11221167.385 -22871529.050 10 0 60274 64800.00000 0 2122290.563 -10646349.999 -23058015.507 10 0 60274 65700.00000 0 4934154.366 -10277432.639 -22795550.798 10 0 60274 66600.00000 0 7705705.257 -10119366.400 -22089330.100 10 0 60274 67500.00000 0 10367648.824 -10164743.193 -20953198.210 10 0 60274 68400.00000 0 12854145.552 -10394189.652 -19409371.486 10 0 60274 69300.00000 0 15105324.852 -10777282.956 -17487995.916 10 0 60274 70200.00000 0 17069553.848 -11273948.738 -15226550.464 10 0 60274 71100.00000 0 18705367.053 -11836280.893 -12669107.919 10 0 60274 72000.00000 0 19982977.450 -12410705.323 -9865468.255 10 0 60274 72900.00000 0 20885307.296 -12940395.208 -6870181.973 10 0 60274 73800.00000 0 21408497.212 -13367834.996 -3741483.013 10 0 60274 74700.00000 0 21561874.124 -13637424.172 -540152.580 10 0 60274 75600.00000 0 21367381.349 -13698010.478 2671663.573 10 0 60274 76500.00000 0 20858496.644 -13505245.494 5831661.105 10 0 60274 77400.00000 0 20078685.332 -13023663.225 8878582.703 10 0 60274 78300.00000 0 19079454.853 -12228394.243 11753400.051 10 0 60274 79200.00000 0 17918093.408 -11106443.417 14400449.636 10 0 60274 80100.00000 0 16655188.136 -9657477.618 16768500.960 10 0 60274 81000.00000 0 15352026.982 -7894090.307 18811737.382 10 0 60274 81900.00000 0 14067992.761 -5841531.555 20490631.701 10 0 60274 82800.00000 0 12858057.849 -3536914.134 21772700.641 10 0 60274 83700.00000 0 11770483.325 -1027927.749 22633124.860 10 0 60274 84600.00000 0 10844817.732 1628886.445 23055223.473 10 0 60274 85500.00000 0 10110278.056 4370230.985 23030774.673 10 0 60275 0.00000 0 9584579.786 7128431.517 22560176.728 10 0 60275 900.00000 0 9273264.115 9834005.229 21652445.899 10 0 60275 1800.00000 0 9169550.902 12418309.938 20325051.604 10 0 60275 2700.00000 0 9254722.740 14816170.537 18603590.345 10 0 60275 3600.00000 0 9499025.310 16968371.488 16521304.063 10 0 60275 4500.00000 0 9863046.656 18823914.174 14118450.690 10 0 60275 5400.00000 0 10299518.328 20341945.488 11441537.699 10 0 60275 6300.00000 0 10755463.435 21493277.341 8542432.079 10 0 60275 7200.00000 0 11174601.646 22261433.349 5477362.896 10 0 60275 8100.00000 0 11499909.943 22643178.360 2305834.973 10 0 60275 9000.00000 0 11676230.753 22648507.954 -910525.654 10 0 60275 9900.00000 0 11652816.500 22300097.662 -4109172.022 10 0 60275 10800.00000 0 11385701.800 21632234.538 -7227858.487 10 0 60275 11700.00000 0 10839801.358 20689275.738 -10205860.428 10 0 60275 12600.00000 0 9990642.957 19523699.046 -12985166.619 10 0 60275 13500.00000 0 8825660.237 18193827.828 -15511619.914 10 0 60275 14400.00000 0 7344988.603 16761326.878 -17735982.948 10 0 60275 15300.00000 0 5561728.738 15288575.509 -19614906.988 10 0 60275 16200.00000 0 3501664.890 13836029.444 -21111784.296 10 0 60275 17100.00000 0 1202448.358 12459683.429 -22197466.775 10 0 60275 18000.00000 0 -1287720.634 11208742.059 -22850836.574 10 0 60275 18900.00000 0 -3911858.147 10123597.218 -23059217.476 10 0 60275 19800.00000 0 -6606335.427 9234197.236 -22818619.188 10 0 60275 20700.00000 0 -9303302.289 8558876.024 -22133810.098 10 0 60275 21600.00000 0 -11933293.830 8103690.708 -21018217.508 10 0 60275 22500.00000 0 -14427911.789 7862294.552 -19493657.787 10 0 60275 23400.00000 0 -16722468.715 7816349.197 -17589902.271 10 0 60275 24300.00000 0 -18758484.881 7936457.348 -15344087.928 10 0 60275 25200.00000 0 -20485934.232 8183575.020 -12799984.842 10 0 60275 26100.00000 0 -21865146.267 8510842.227 -10007135.402 10 0 60275 27000.00000 0 -22868285.428 8865753.425 -7019882.568 10 0 60275 27900.00000 0 -23480347.442 9192574.817 -3896306.674 10 0 60275 28800.00000 0 -23699632.417 9434905.423 -697092.073 10 0 60275 29700.00000 0 -23537676.578 9538273.008 2515653.894 10 0 60275 30600.00000 0 -23018647.226 9452654.787 5679606.316 10 0 60275 31500.00000 0 -22178227.907 9134816.312 8733428.913 10 0 60275 32400.00000 0 -21062041.977 8550369.891 11617957.716 10 0 60275 33300.00000 0 -19723681.727 7675465.909 14277339.620 10 0 60275 34200.00000 0 -18222426.365 6498046.006 16660104.363 10 0 60275 35100.00000 0 -16620744.627 5018605.479 18720150.035 10 0 60275 36000.00000 0 -14981686.279 3250432.675 20417624.165 10 0 60275 36900.00000 0 -13366270.956 1219314.865 21719684.426 10 0 60275 37800.00000 0 -11830982.404 -1037278.055 22601125.476 10 0 60275 38700.00000 0 -10425471.591 -3471499.269 23044860.805 10 0 60275 39600.00000 0 -9190563.281 -6026867.377 23042251.034 10 0 60275 40500.00000 0 -8156648.093 -8640374.807 22593272.754 10 0 60275 41400.00000 0 -7342526.176 -11244876.689 21706524.631 10 0 60275 42300.00000 0 -6754750.140 -13771662.956 20399070.254 10 0 60275 43200.00000 0 -6387494.402 -16153108.682 18696119.917 10 0 60275 44100.00000 0 -6222956.429 -18325294.075 16630556.356 10 0 60275 45000.00000 0 -6232273.425 -20230486.259 14242312.255 10 0 60275 45900.00000 0 -6376916.508 -21819380.183 11577610.128 10 0 60275 46800.00000 0 -6610504.338 -23053005.385 8688077.941 10 0 60275 47700.00000 0 -6880960.314 -23904218.670 5629756.480 10 0 60275 48600.00000 0 -7132922.631 -24358719.652 2462016.872 10 0 60275 49500.00000 0 -7310305.293 -24415545.726 -753591.135 10 0 60275 50400.00000 0 -7358901.314 -24087024.770 -3954537.761 10 0 60275 51300.00000 0 -7228916.970 -23398186.694 -7078534.909 10 0 60275 52200.00000 0 -6877328.501 -22385657.918 -10064756.534 10 0 60275 53100.00000 0 -6269959.759 -21096084.927 -12855032.856 10 0 60275 54000.00000 0 -5383190.997 -19584153.219 -15394994.063 10 0 60275 54900.00000 0 -4205224.511 -17910285.325 -17635140.104 10 0 60275 55800.00000 0 -2736851.699 -16138115.315 -19531814.702 10 0 60275 56700.00000 0 -991687.366 -14331846.760 -21048063.749 10 0 60275 57600.00000 0 1004140.203 -12553605.936 -22154360.829 10 0 60275 58500.00000 0 3212831.627 -10860902.154 -22829185.326 10 0 60275 59400.00000 0 5586256.877 -9304302.306 -23059441.828 10 0 60275 60300.00000 0 8067738.228 -7925417.316 -22840712.768 10 0 60275 61200.00000 0 10594201.440 -6755284.751 -22177339.658 10 0 60275 62100.00000 0 13098605.323 -5813214.778 -21082331.781 10 0 60275 63000.00000 0 15512548.223 -5106146.806 -19577104.593 10 0 60275 63900.00000 0 17768942.480 -4628542.422 -17691053.470 10 0 60275 64800.00000 0 19804645.211 -4362817.437 -15460971.693 10 0 60275 65700.00000 0 21562935.717 -4280292.970 -12930324.570 10 0 60275 66600.00000 0 22995736.331 -4342623.679 -10148394.468 10 0 60275 67500.00000 0 24065484.538 -4503641.069 -7169314.008 10 0 60275 68400.00000 0 24746578.929 -4711532.487 -4051006.826 10 0 60275 69300.00000 0 25026339.633 -4911262.399 -854057.115 10 0 60275 70200.00000 0 24905444.350 -5047132.628 2359469.607 10 0 60275 71100.00000 0 24397823.173 -5065372.639 5527231.256 10 0 60275 72000.00000 0 23530018.055 -4916650.068 8587815.851 10 0 60275 72900.00000 0 22340035.089 -4558395.383 11481926.795 10 0 60275 73800.00000 0 20875738.733 -3956842.681 14153524.112 10 0 60275 74700.00000 0 19192855.942 -3088700.791 16550900.132 10 0 60275 75600.00000 0 17352673.992 -1942384.512 18627669.646 10 0 60275 76500.00000 0 15419528.072 -518754.180 20343656.483 10 0 60275 77400.00000 0 13458182.953 1168667.712 21665660.443 10 0 60275 78300.00000 0 11531217.054 3094012.642 22568090.970 10 0 60275 79200.00000 0 9696516.675 5219902.771 23033456.315 10 0 60275 80100.00000 0 8004983.485 7498774.781 23052699.516 10 0 60275 81000.00000 0 6498549.355 9874637.469 22625375.134 10 0 60275 81900.00000 0 5208579.995 12285191.891 21759663.356 10 0 60275 82800.00000 0 4154732.948 14664227.894 20472220.787 10 0 60275 83700.00000 0 3344316.868 16944199.269 18787870.013 10 0 60275 84600.00000 0 2772178.505 19058872.091 16739132.776 10 0 60275 85500.00000 0 2421122.076 20945937.236 14365614.475 10 0 60276 0.00000 0 2262843.671 22549478.883 11713250.691 10 0 60276 900.00000 0 2259341.760 23822197.097 8833427.508 10 0 60276 1800.00000 0 2364744.964 24727289.297 5781995.137 10 0 60276 2700.00000 0 2527480.046 25239914.071 2618188.403 10 0 60276 3600.00000 0 2692688.801 25348172.807 -596521.901 10 0 60276 4500.00000 0 2804791.211 25053567.708 -3799625.850 10 0 60276 5400.00000 0 2810085.683 24370915.629 -6928795.509 10 0 60276 6300.00000 0 2659275.140 23327720.314 -9923105.904 10 0 60276 7200.00000 0 2309810.470 21963028.671 -12724231.023 10 0 60276 8100.00000 0 1727950.416 20325818.727 -15277590.495 10 0 60276 9000.00000 0 890448.797 18472986.926 -17533423.478 10 0 60276 9900.00000 0 -214204.161 16467019.642 -19447767.795 10 0 60276 10800.00000 0 -1585040.641 14373447.139 -20983324.397 10 0 60276 11700.00000 0 -3208407.100 12258187.475 -22110189.738 10 0 60276 12600.00000 0 -5058299.300 10184892.371 -22806441.382 10 0 60276 13500.00000 0 -7097227.493 8212406.737 -23058565.389 10 0 60276 14400.00000 0 -9277576.185 6392448.509 -22861717.242 10 0 60276 15300.00000 0 -11543401.884 4767605.809 -22219811.527 10 0 60276 16200.00000 0 -13832593.732 3369734.741 -21145439.034 10 0 60276 17100.00000 0 -16079306.608 2218823.950 -19659613.383 10 0 60276 18000.00000 0 -18216564.784 1322372.126 -17791352.652 10 0 60276 18900.00000 0 -20178927.142 675302.842 -15577104.723 10 0 60276 19800.00000 0 -21905102.418 260418.298 -13060028.122 10 0 60276 20700.00000 0 -23340405.154 49370.817 -10289142.966 10 0 60276 21600.00000 0 -24438949.850 4109.061 -7318369.178 10 0 60276 22500.00000 0 -25165492.017 78736.059 -4205471.253 10 0 60276 23400.00000 0 -25496839.741 221698.905 -1010930.725 10 0 60276 24300.00000 0 -25422777.636 378216.261 2203231.255 10 0 60276 25200.00000 0 -24946465.581 492840.068 5374658.002 10 0 60276 26100.00000 0 -24084296.737 512042.592 8441864.446 10 0 60276 27000.00000 0 -22865221.936 386719.231 11345423.978 10 0 60276 27900.00000 0 -21329569.695 74501.429 14029112.334 10 0 60276 28800.00000 0 -19527411.916 -458217.658 16440986.911 10 0 60276 29700.00000 0 -17516543.941 -1234629.823 18534381.501 10 0 60276 30600.00000 0 -15360163.145 -2266300.173 20268798.261 10 0 60276 31500.00000 0 -13124342.439 -3552448.112 21610680.800 10 0 60276 32400.00000 0 -10875402.988 -5079751.469 22534054.623 10 0 60276 33300.00000 0 -8677294.278 -6822682.707 23021023.579 10 0 60276 34200.00000 0 -6589089.130 -8744364.336 23062113.512 10 0 60276 35100.00000 0 -4662696.294 -10797909.350 22656456.907 10 0 60276 36000.00000 0 -2940884.319 -12928192.631 21811815.024 10 0 60276 36900.00000 0 -1455697.671 -15073981.436 20544436.666 10 0 60276 37800.00000 0 -227330.074 -17170338.155 18878755.549 10 0 60276 38700.00000 0 736498.628 -19151197.014 16846930.960 10 0 60276 39600.00000 0 1440636.400 -20952008.675 14488239.272 10 0 60276 40500.00000 0 1902059.841 -22512343.382 11848326.656 10 0 60276 41400.00000 0 2148920.214 -23778344.370 8978336.085 10 0 60276 42300.00000 0 2219114.515 -24704928.761 5933924.404 10 0 60276 43200.00000 0 2158441.551 -25257643.227 2774187.679 10 0 60276 44100.00000 0 2018420.793 -25414095.544 -439484.782 10 0 60276 45000.00000 0 1853866.366 -25164900.653 -3644605.491 10 0 60276 45900.00000 0 1720319.374 -24514100.063 -6778809.291 10 0 60276 46800.00000 0 1671448.177 -23479035.595 -9781074.908 10 0 60276 47700.00000 0 1756527.995 -22089681.577 -12592922.727 10 0 60276 48600.00000 0 2018108.096 -20387462.698 -15159564.395 10 0 60276 49500.00000 0 2489967.065 -18423606.652 -17430980.738 10 0 60276 50400.00000 0 3195444.422 -16257100.614 -19362905.946 10 0 60276 51300.00000 0 4146220.843 -13952337.459 -20917698.012 10 0 60276 52200.00000 0 5341600.066 -11576550.749 -22065077.875 10 0 60276 53100.00000 0 6768324.099 -9197146.458 -22782722.473 10 0 60276 54000.00000 0 8400930.600 -6879043.520 -23056700.075 10 0 60276 54900.00000 0 10202638.167 -4682134.692 -22881739.504 10 0 60276 55800.00000 0 12126722.823 -2658973.902 -22261328.271 10 0 60276 56700.00000 0 14118328.120 -852786.340 -21207638.131 10 0 60276 57600.00000 0 16116632.987 704116.316 -19741279.961 10 0 60276 58500.00000 0 18057286.234 1991450.480 -17890893.280 10 0 60276 59400.00000 0 19875005.517 3001560.007 -15692578.977 10 0 60276 60300.00000 0 21506231.606 3739477.167 -13189186.855 10 0 60276 61200.00000 0 22891726.598 4222444.847 -10429472.516 10 0 60276 62100.00000 0 23979007.168 4478922.334 -7467140.597 10 0 60276 63000.00000 0 24724511.088 4547118.737 -4359793.595 10 0 60276 63900.00000 0 25095406.542 4473117.905 -1167807.341 10 0 60276 64800.00000 0 25070969.057 4308675.681 2046844.526 10 0 60276 65700.00000 0 24643469.083 4108783.851 5221793.867 10 0 60276 66600.00000 0 23818533.941 3929104.621 8295485.558 10 0 60276 67500.00000 0 22614969.880 3823384.486 11208365.832 10 0 60276 68400.00000 0 21064052.500 3840956.839 13904028.731 10 0 60276 69300.00000 0 19208315.818 4024438.489 16330299.036 10 0 60276 70200.00000 0 17099890.851 4407716.880 18440231.538 10 0 60276 71100.00000 0 14798462.952 5014312.367 20193008.410 10 0 60276 72000.00000 0 12368932.540 5856184.126 21554718.432 10 0 60276 72900.00000 0 9878875.714 6933029.844 22499004.191 10 0 60276 73800.00000 0 7395909.092 8232108.876 23007565.801 10 0 60276 74700.00000 0 4985066.942 9728597.039 23070512.187 10 0 60276 75600.00000 0 2706297.924 11386459.375 22686553.621 10 0 60276 76500.00000 0 612183.818 13159805.948 21863031.860 10 0 60276 77400.00000 0 -1254026.425 14994675.871 20615786.896 10 0 60276 78300.00000 0 -2859986.768 16831176.908 18968862.144 10 0 60276 79200.00000 0 -4185363.878 18605893.202 16954052.639 10 0 60276 80100.00000 0 -5222440.900 20254462.060 14610303.622 10 0 60276 81000.00000 0 -5976190.252 21714213.249 11982969.760 10 0 60276 81900.00000 0 -6463812.442 22926761.074 9122947.915 10 0 60276 82800.00000 0 -6713760.102 23840440.691 6085699.153 10 0 60276 83700.00000 0 -6764288.123 24412486.055 2930178.071 10 0 60276 84600.00000 0 -6661590.923 24610857.122 -282310.257 10 0 60276 85500.00000 0 -6457605.559 24415638.158 -3489303.510 10 0 60277 0.00000 0 -6207574.006 23819946.890 -6628401.717 10 0 60277 900.00000 0 -5967468.296 22830314.228 -9638490.439 10 0 60277 1800.00000 0 -5791388.915 21466517.925 -12460938.579 10 0 60277 2700.00000 0 -5729047.501 19760874.831 -15040752.005 10 0 60277 3600.00000 0 -5823442.230 17757021.177 -17327655.175 10 0 60277 4500.00000 0 -6108825.762 15508231.268 -19277080.367 10 0 60277 5400.00000 0 -6609053.234 13075344.897 -20851044.074 10 0 60277 6300.00000 0 -7336381.606 10524390.365 -22018892.931 10 0 60277 7200.00000 0 -8290772.234 7924002.865 -22757904.182 10 0 60277 8100.00000 0 -9459727.101 5342746.506 -23053728.935 10 0 60277 9000.00000 0 -10818666.293 2846452.116 -22900669.647 10 0 60277 9900.00000 0 -12331831.252 495682.098 -22301786.665 10 0 60277 10800.00000 0 -13953675.956 -1656572.079 -21268832.200 10 0 60277 11700.00000 0 -15630687.530 -3566864.208 -19822013.438 10 0 60277 12600.00000 0 -17303559.531 -5202858.040 -17989589.975 10 0 60277 13500.00000 0 -18909626.340 -6544418.368 -15807313.953 10 0 60277 14400.00000 0 -20385456.061 -7584184.671 -13317724.397 10 0 60277 15300.00000 0 -21669492.734 -8327605.329 -10569310.086 10 0 60277 16200.00000 0 -22704636.683 -8792433.301 -7615557.911 10 0 60277 17100.00000 0 -23440654.586 -9007706.745 -4513905.802 10 0 60277 18000.00000 0 -23836318.168 -9012259.736 -1324621.250 10 0 60277 18900.00000 0 -23861182.043 -8852827.823 1890372.295 10 0 60277 19800.00000 0 -23496926.573 -8581829.991 5068697.952 10 0 60277 20700.00000 0 -22738210.018 -8254921.889 8148733.269 10 0 60277 21600.00000 0 -21592994.934 -7928424.355 11070800.028 10 0 60277 22500.00000 0 -20082335.749 -7656736.145 13778313.229 10 0 60277 23400.00000 0 -18239636.879 -7489839.909 16218867.546 10 0 60277 24300.00000 0 -16109412.594 -7471006.224 18345241.075 10 0 60277 25200.00000 0 -13745600.223 -7634791.831 20116298.008 10 0 60277 26100.00000 0 -11209496.504 -8005415.746 21497773.931 10 0 60277 27000.00000 0 -8567402.023 -8595581.109 22462929.733 10 0 60277 27900.00000 0 -5888070.387 -9405792.063 22993062.552 10 0 60277 28800.00000 0 -3240066.563 -10424194.619 23077864.706 10 0 60277 29700.00000 0 -689142.316 -11626948.813 22715624.127 10 0 60277 30600.00000 0 1704264.077 -12979117.761 21913262.532 10 0 60277 31500.00000 0 3887301.634 -14436037.825 20686210.200 10 0 60277 32400.00000 0 5816660.978 -15945114.278 19058119.012 10 0 60277 33300.00000 0 7460128.971 -17447969.096 17060418.198 10 0 60277 34200.00000 0 8797679.676 -18882852.547 14731720.027 10 0 60277 35100.00000 0 9822056.550 -20187218.903 12117085.532 10 0 60277 36000.00000 0 10538821.673 -21300359.180 9267163.095 10 0 60277 36900.00000 0 10965869.845 -22165980.738 6237215.410 10 0 60277 37800.00000 0 11132427.826 -22734625.151 3086052.852 10 0 60277 38700.00000 0 11077580.680 -22965821.929 -125106.587 10 0 60277 39600.00000 0 10848387.347 -22829886.171 -3333828.644 10 0 60277 40500.00000 0 10497665.251 -22309282.919 -6477681.935 10 0 60277 41400.00000 0 10081538.110 -21399498.944 -9495460.505 10 0 60277 42300.00000 0 9656851.492 -20109383.480 -12328385.010 10 0 60277 43200.00000 0 9278566.618 -18460941.892 -14921258.040 10 0 60277 44100.00000 0 8997243.967 -16488589.564 -17223549.991 10 0 60277 45000.00000 0 8856724.585 -14237896.277 -19190393.263 10 0 60277 45900.00000 0 8892108.544 -11763873.090 -20783464.573 10 0 60277 46800.00000 0 9128117.269 -9128873.156 -21971737.574 10 0 60277 47700.00000 0 9577909.999 -6400194.296 -22732090.717 10 0 60277 48600.00000 0 10242405.173 -3647483.654 -23049758.402 10 0 60277 49500.00000 0 11110135.888 -940052.982 -22918616.710 10 0 60277 50400.00000 0 12157645.824 1655783.299 -22341298.395 10 0 60277 51300.00000 0 13350408.931 4079236.305 -21329135.297 10 0 60277 52200.00000 0 14644233.994 6277332.146 -19901929.742 10 0 60277 53100.00000 0 15987094.529 8206867.808 -18087559.908 10 0 60277 54000.00000 0 17321306.556 9835952.968 -15921427.413 10 0 60277 54900.00000 0 18585962.074 11145074.863 -13445758.429 10 0 60277 55800.00000 0 19719515.341 12127643.502 -10708772.590 10 0 60277 56700.00000 0 20662412.690 12789996.534 -7763736.468 10 0 60277 57600.00000 0 21359654.975 13150865.865 -4667920.662 10 0 60277 58500.00000 0 21763184.696 13240330.715 -1481481.422 10 0 60277 59400.00000 0 21833997.471 13098303.337 1733710.949 10 0 60277 60300.00000 0 21543889.347 12772613.092 4915273.745 10 0 60277 61200.00000 0 20876766.890 12316771.111 8001519.992 10 0 60277 62100.00000 0 19829465.545 11787510.912 10932649.637 10 0 60277 63000.00000 0 18412042.349 11242209.209 13651901.021 10 0 60277 63900.00000 0 16647531.088 10736295.777 16106640.839 10 0 60277 64800.00000 0 14571170.227 10320761.214 18249372.347 10 0 60277 65700.00000 0 12229135.649 10039866.918 20038643.351 10 0 60277 66600.00000 0 9676830.471 9929152.900 21439837.555 10 0 60277 67500.00000 0 6976802.212 10013826.423 22425835.166 10 0 60277 68400.00000 0 4196372.559 10307598.548 22977531.053 10 0 60277 69300.00000 0 1405076.621 10812017.177 23084201.258 10 0 60277 70200.00000 0 -1327983.860 11516324.671 22743711.314 10 0 60277 71100.00000 0 -3936765.408 12397846.613 21962562.401 10 0 60277 72000.00000 0 -6360778.624 13422896.416 20755774.121 10 0 60277 72900.00000 0 -8547352.915 14548159.208 19146605.412 10 0 60277 73800.00000 0 -10453577.311 15722498.509 17166117.873 10 0 60277 74700.00000 0 -12047837.474 16889111.475 14852588.628 10 0 60277 75600.00000 0 -13310885.425 17987943.632 12250782.643 10 0 60277 76500.00000 0 -14236397.475 18958262.739 9411097.210 10 0 60277 77400.00000 0 -14830996.979 19741284.106 6388593.953 10 0 60277 78300.00000 0 -15113740.715 20282736.947 3241936.296 10 0 60277 79200.00000 0 -15115090.265 20535263.124 32252.434 10 0 60277 80100.00000 0 -14875411.528 20460546.099 -3178054.094 10 0 60277 81000.00000 0 -14443065.702 20031078.842 -6326522.816 10 0 60277 81900.00000 0 -13872172.633 19231494.337 -9351859.330 10 0 60277 82800.00000 0 -13220141.664 18059400.682 -12195138.123 10 0 60277 83700.00000 0 -12545075.251 16525683.653 -14800960.690 10 0 60277 84600.00000 0 -11903156.227 14654262.298 -17118545.329 10 0 60277 85500.00000 0 -11346130.399 12481306.348 -19102726.278 99